• In Uzbekistan
  • List of Countries
  • For 7 days
  • Water Temperature
  • Weather Map
  • Weather Widgets
  • user-avatar
    Login

    Hourly Weather Saurimo

    Today, 21 September, Saturday

    Time Temperature Precipitation Wind Pressure Humidity
    00:00 +24°C° 0 mm 1 mps 669 mmHg 50%
    01:00 +23°C° 0 mm 1 mps 669 mmHg 53%
    02:00 +23°C° 0 mm 1 mps 669 mmHg 57%
    03:00 +22°C° 0 mm 1 mps 669 mmHg 61%
    04:00 +21°C° 0 mm 1 mps 669 mmHg 65%
    05:00 +23°C° 0 mm 1 mps 670 mmHg 62%
    06:00 +22°C° 0 mm 0 mps 671 mmHg 59%
    07:00 +23°C° 0 mm 0 mps 672 mmHg 56%
    08:00 +28°C° 0 mm 1 mps 672 mmHg 50%
    09:00 +30°C° 0 mm 1 mps 672 mmHg 44%
    10:00 +34°C° 0 mm 2 mps 673 mmHg 39%
    11:00 +35°C° 0 mm 1 mps 672 mmHg 33%
    12:00 +37°C° 0 mm 1 mps 672 mmHg 27%
    13:00 +40°C° 0 mm 1 mps 671 mmHg 21%
    14:00 +37°C° 0 mm 1 mps 670 mmHg 23%
    15:00 +35°C° 0 mm 1 mps 670 mmHg 25%
    16:00 +33°C° 0 mm 1 mps 669 mmHg 28%
    17:00 +32°C° 0 mm 1 mps 669 mmHg 31%
    18:00 +30°C° 0 mm 1 mps 669 mmHg 35%
    19:00 +28°C° 0 mm 1 mps 669 mmHg 38%
    20:00 +27°C° 0 mm 1 mps 669 mmHg 42%
    21:00 +26°C° 0 mm 1 mps 669 mmHg 45%
    22:00 +25°C° 0 mm 1 mps 669 mmHg 48%
    23:00 +24°C° 0 mm 1 mps 669 mmHg 52%

    Tomorrow, 22 September, Sunday

    Time Temperature Precipitation Wind Pressure Humidity
    00:00 +24°C° 0 mm 1 mps 669 mmHg 55%
    01:00 +23°C° 0 mm 1 mps 669 mmHg 58%
    02:00 +23°C° 0 mm 1 mps 669 mmHg 62%
    03:00 +22°C° 0 mm 1 mps 669 mmHg 66%
    04:00 +22°C° 0 mm 1 mps 668 mmHg 70%
    05:00 +23°C° 0 mm 2 mps 669 mmHg 67%
    06:00 +24°C° 0 mm 2 mps 670 mmHg 64%
    07:00 +25°C° 0 mm 3 mps 671 mmHg 61%
    08:00 +27°C° 0 mm 3 mps 671 mmHg 53%
    09:00 +30°C° 0 mm 2 mps 672 mmHg 45%
    10:00 +34°C° 0 mm 2 mps 672 mmHg 37%
    11:00 +35°C° 0 mm 2 mps 672 mmHg 33%
    12:00 +36°C° 0 mm 1 mps 671 mmHg 28%
    13:00 +39°C° 0 mm 1 mps 671 mmHg 24%
    14:00 +36°C° 0 mm 1 mps 670 mmHg 26%
    15:00 +35°C° 0 mm 1 mps 670 mmHg 28%
    16:00 +33°C° 0 mm 1 mps 669 mmHg 31%
    17:00 +31°C° 0 mm 1 mps 670 mmHg 36%
    18:00 +29°C° 0 mm 1 mps 670 mmHg 41%
    19:00 +27°C° 0 mm 1 mps 670 mmHg 46%
    20:00 +27°C° 0 mm 1 mps 670 mmHg 49%
    21:00 +26°C° 0 mm 1 mps 670 mmHg 52%
    22:00 +25°C° 0 mm 2 mps 670 mmHg 55%
    23:00 +24°C° 0 mm 2 mps 669 mmHg 59%

    Day after tomorrow, 23 September, Monday

    Time Temperature Precipitation Wind Pressure Humidity
    00:00 +23°C° 0 mm 2 mps 669 mmHg 62%
    01:00 +23°C° 0 mm 1 mps 668 mmHg 66%
    02:00 +22°C° 0 mm 1 mps 668 mmHg 68%
    03:00 +22°C° 0 mm 1 mps 668 mmHg 69%
    04:00 +21°C° 0 mm 1 mps 668 mmHg 71%
    05:00 +23°C° 0 mm 1 mps 669 mmHg 67%
    06:00 +24°C° 0 mm 1 mps 670 mmHg 63%
    07:00 +25°C° 0 mm 1 mps 670 mmHg 59%
    08:00 +28°C° 0 mm 2 mps 671 mmHg 51%
    09:00 +31°C° 0 mm 2 mps 671 mmHg 43%
    10:00 +35°C° 0 mm 2 mps 672 mmHg 35%
    11:00 +36°C° 0 mm 2 mps 671 mmHg 30%
    12:00 +37°C° 0 mm 2 mps 671 mmHg 26%
    13:00 +39°C° 0 mm 2 mps 670 mmHg 22%
    14:00 +38°C° 0 mm 2 mps 670 mmHg 23%
    15:00 +37°C° 0 mm 2 mps 670 mmHg 24%
    16:00 +36°C° 0 mm 2 mps 669 mmHg 26%
    17:00 +34°C° 0 mm 2 mps 669 mmHg 30%
    18:00 +31°C° 0 mm 1 mps 669 mmHg 34%
    19:00 +29°C° 0 mm 1 mps 669 mmHg 38%
    20:00 +28°C° 0.1 mm 1 mps 670 mmHg 40%
    21:00 +28°C° 0.1 mm 1 mps 670 mmHg 42%
    22:00 +27°C° 0.1 mm 1 mps 670 mmHg 45%
    23:00 +26°C° 0 mm 1 mps 669 mmHg 50%

    24 September, Tuesday

    Time Temperature Precipitation Wind Pressure Humidity
    00:00 +25°C° 0 mm 2 mps 669 mmHg 55%
    01:00 +23°C° 0 mm 2 mps 669 mmHg 60%
    02:00 +23°C° 0 mm 1 mps 669 mmHg 62%
    03:00 +23°C° 0 mm 1 mps 669 mmHg 64%
    04:00 +22°C° 0 mm 1 mps 669 mmHg 66%
    05:00 +23°C° 0 mm 1 mps 669 mmHg 63%
    06:00 +24°C° 0 mm 1 mps 670 mmHg 61%
    07:00 +25°C° 0 mm 1 mps 671 mmHg 58%
    08:00 +29°C° 0 mm 1 mps 671 mmHg 50%
    09:00 +32°C° 0 mm 1 mps 672 mmHg 42%
    10:00 +35°C° 0 mm 1 mps 672 mmHg 34%
    11:00 +36°C° 0 mm 1 mps 672 mmHg 31%
    12:00 +37°C° 0 mm 1 mps 671 mmHg 28%
    13:00 +39°C° 0 mm 1 mps 670 mmHg 25%
    14:00 +37°C° 0 mm 1 mps 670 mmHg 26%
    15:00 +37°C° 0 mm 2 mps 670 mmHg 27%
    16:00 +36°C° 0 mm 2 mps 669 mmHg 27%
    17:00 +33°C° 0.1 mm 3 mps 669 mmHg 35%
    18:00 +30°C° 0.1 mm 3 mps 669 mmHg 43%
    19:00 +27°C° 0.1 mm 4 mps 669 mmHg 50%
    20:00 +26°C° 0 mm 3 mps 669 mmHg 58%
    21:00 +25°C° 0 mm 3 mps 669 mmHg 66%
    22:00 +24°C° 0 mm 3 mps 669 mmHg 73%
    23:00 +22°C° 0 mm 3 mps 669 mmHg 76%

    25 September, Wednesday

    Time Temperature Precipitation Wind Pressure Humidity
    00:00 +23°C° 0 mm 2 mps 669 mmHg 78%
    01:00 +21°C° 0 mm 2 mps 669 mmHg 81%
    02:00 +22°C° 0 mm 1 mps 669 mmHg 82%
    03:00 +22°C° 0 mm 1 mps 669 mmHg 83%
    04:00 +21°C° 0 mm 1 mps 669 mmHg 84%
    05:00 +22°C° 0 mm 1 mps 670 mmHg 79%
    06:00 +23°C° 0 mm 2 mps 671 mmHg 74%
    07:00 +24°C° 0 mm 2 mps 671 mmHg 69%
    08:00 +28°C° 0 mm 1 mps 672 mmHg 57%
    09:00 +32°C° 0 mm 1 mps 673 mmHg 46%
    10:00 +34°C° 0 mm 0 mps 674 mmHg 34%
    11:00 +36°C° 0 mm 1 mps 673 mmHg 32%
    12:00 +36°C° 0 mm 1 mps 672 mmHg 30%
    13:00 +36°C° 0 mm 1 mps 671 mmHg 28%
    14:00 +36°C° 0 mm 1 mps 670 mmHg 28%
    15:00 +36°C° 0 mm 2 mps 670 mmHg 28%
    16:00 +35°C° 0 mm 2 mps 669 mmHg 29%
    17:00 +32°C° 0.1 mm 2 mps 669 mmHg 36%
    18:00 +29°C° 0.1 mm 1 mps 669 mmHg 43%
    19:00 +27°C° 0.1 mm 1 mps 669 mmHg 51%
    20:00 +26°C° 0 mm 1 mps 669 mmHg 54%
    21:00 +25°C° 0 mm 1 mps 669 mmHg 58%
    22:00 +24°C° 0 mm 1 mps 669 mmHg 61%
    23:00 +23°C° 0 mm 1 mps 669 mmHg 65%

    26 September, Thursday

    Time Temperature Precipitation Wind Pressure Humidity
    00:00 +23°C° 0 mm 1 mps 669 mmHg 70%
    01:00 +22°C° 0 mm 1 mps 668 mmHg 74%
    02:00 +20°C° 0 mm 0 mps 668 mmHg 75%
    03:00 +20°C° 0 mm 0 mps 669 mmHg 76%
    04:00 +20°C° 0 mm 0 mps 669 mmHg 77%
    05:00 +21°C° 0 mm 0 mps 670 mmHg 72%
    06:00 +24°C° 0 mm 1 mps 671 mmHg 68%
    07:00 +25°C° 0 mm 1 mps 672 mmHg 63%
    08:00 +28°C° 0 mm 2 mps 672 mmHg 53%
    09:00 +30°C° 0 mm 2 mps 673 mmHg 42%
    10:00 +33°C° 0 mm 3 mps 673 mmHg 32%
    11:00 +34°C° 0 mm 3 mps 672 mmHg 29%
    12:00 +35°C° 0 mm 3 mps 671 mmHg 26%
    13:00 +36°C° 0 mm 3 mps 671 mmHg 23%
    14:00 +36°C° 0 mm 3 mps 670 mmHg 25%
    15:00 +35°C° 0 mm 3 mps 670 mmHg 26%
    16:00 +35°C° 0 mm 3 mps 669 mmHg 27%
    17:00 +31°C° 0 mm 2 mps 669 mmHg 33%
    18:00 +29°C° 0 mm 2 mps 669 mmHg 39%
    19:00 +27°C° 0 mm 1 mps 669 mmHg 45%
    20:00 +26°C° 0 mm 1 mps 669 mmHg 48%
    21:00 +23°C° 0 mm 0 mps 670 mmHg 52%
    22:00 +22°C° 0 mm 0 mps 670 mmHg 55%
    23:00 +22°C° 0 mm 0 mps 670 mmHg 59%
    Show more